Weather History for 03772 - May, 2014

Change the Weather History Date:

Monday, May 12, 2014

  Actual Average Record
Temperature  
Mean Temperature 56 °F -  
Max Temperature 64 °F 64 °F - ()
Min Temperature 48 °F 49 °F - ()
Degree Days  
Heating Degree Days 9    
Growing Degree Days 6 (Base 50)    
Moisture  
Dew Point 43 °F    
Average Humidity 65    
Maximum Humidity 87    
Minimum Humidity 29    
Precipitation  
Precipitation 0.12 in - - ()
Sea Level Pressure  
Sea Level Pressure 29.83 in    
Wind  
Wind Speed 12 mph ()    
Max Wind Speed 18 mph    
Max Gust Speed -    
Visibility 8.4 miles    
Events Rain    
T = Trace of Precipitation, MM = Missing Value Source: Averaged Metar Reports

Daily Weather History Graph

Daily Weather History Graph

Search for Another Location

Airport or City:

Trip Planner

Search our weather history database for the weather conditions in past years. The results will help you decide how hot, cold, wet, or windy it might be!

Date:

Astronomy

May. 12, 2014 Rise Set
Actual Time 5:14 AM BST 8:42 PM BST
Civil Twilight 4:34 AM BST 9:23 PM BST
Nautical Twilight 3:39 AM BST 10:18 PM BST
Astronomical Twilight 2:23 AM BST 11:36 PM BST
Moon 6:08 PM BST (5/12) 4:05 AM BST (5/12)
Length of Visible Light 16h 48m
Length of Day
15h 27m
Waxing Gibbous, 94% of the Moon is Illuminated
May 12
Waxing Gibbous
May 14
Full
May 21
Last Quarter
May 28
New
Jun 5
First Quarter

Hourly Weather History & Observations

Time (BST) Temp. Dew Point Humidity Pressure Visibility Wind Dir Wind Speed Gust Speed Precip Events Conditions
12:00 AM 51 °F 42 °F 63% 29.77 in 18 mi WSW 18.4 mph - -   Overcast
12:20 AM 51.8 °F 42.8 °F 71% 29.77 in - West 15.0 mph - N/A   Clear
12:50 AM 50.0 °F 42.8 °F 76% 29.77 in 6.2 mi WSW 15.0 mph - N/A   Partly Cloudy
1:00 AM 50 °F 43 °F 69% 29.77 in 16 mi WSW 16.1 mph - -   Mostly Cloudy
1:20 AM 50.0 °F 42.8 °F 76% 29.77 in 6.2 mi WSW 15.0 mph - N/A   Overcast
1:50 AM 50.0 °F 42.8 °F 76% 29.77 in 6.2 mi WSW 15.0 mph - N/A   Unknown
2:00 AM 49 °F 43 °F 72% 29.78 in 18 mi WSW 13.8 mph - - Rain Light Rain Showers
2:20 AM 50.0 °F 42.8 °F 76% 29.77 in 6.2 mi WSW 13.8 mph - N/A   Unknown
2:50 AM 50.0 °F 42.8 °F 76% 29.77 in 6.2 mi WSW 11.5 mph - N/A   Partly Cloudy
3:00 AM 48 °F 43 °F 77% 29.78 in 16 mi WSW 11.5 mph - - Rain Rain
3:20 AM 50.0 °F 44.6 °F 82% 29.77 in - West 11.5 mph - N/A   Clear
3:50 AM 50.0 °F 44.6 °F 82% 29.77 in - West 12.7 mph - N/A   Clear
4:00 AM 49 °F 43 °F 74% 29.78 in 16 mi West 11.5 mph - -   Mostly Cloudy
4:20 AM 50.0 °F 44.6 °F 82% 29.77 in - West 12.7 mph - N/A   Clear
4:50 AM 50.0 °F 44.6 °F 82% 29.77 in - West 13.8 mph - N/A   Clear
5:00 AM 49 °F 44 °F 75% 29.78 in 16 mi West 12.7 mph - - Rain Rain
5:20 AM 50.0 °F 44.6 °F 82% 29.77 in - WSW 12.7 mph - N/A   Clear
5:50 AM 48.2 °F 44.6 °F 87% 29.80 in - West 11.5 mph - N/A   Clear
6:00 AM 48 °F 43 °F 77% 29.80 in 16 mi West 10.4 mph - -   Mostly Cloudy
6:20 AM 50.0 °F 44.6 °F 82% 29.80 in - WSW 12.7 mph - N/A   Clear
6:50 AM 50.0 °F 42.8 °F 76% 29.80 in - WSW 11.5 mph - N/A   Clear
7:00 AM 49 °F 43 °F 74% 29.82 in 16 mi WSW 10.4 mph - -  
7:20 AM 50.0 °F 42.8 °F 76% 29.83 in - West 12.7 mph - N/A   Clear
7:50 AM 50.0 °F 44.6 °F 82% 29.83 in - West 13.8 mph - N/A   Clear
8:00 AM 49 °F 43 °F 71% 29.83 in 17 mi WSW 12.7 mph - -   Partly Cloudy
8:20 AM 50.0 °F 44.6 °F 82% 29.83 in - West 13.8 mph - N/A   Clear
8:50 AM 51.8 °F 44.6 °F 76% 29.83 in - West 13.8 mph - N/A   Clear
9:00 AM 51 °F 44 °F 68% 29.83 in 19 mi West 12.7 mph - - Rain Rain
9:20 AM 53.6 °F 44.6 °F 72% 29.83 in 6.2 mi West 11.5 mph - N/A   Partly Cloudy
9:50 AM 55.4 °F 44.6 °F 67% 29.83 in 6.2 mi West 13.8 mph - N/A   Partly Cloudy
10:00 AM 54 °F 41 °F 50% 29.84 in 22 mi West 12.7 mph - -   Mostly Cloudy
10:20 AM 57.2 °F 41.0 °F 55% 29.83 in 6.2 mi West 16.1 mph - N/A   Partly Cloudy
10:50 AM 57.2 °F 41.0 °F 55% 29.83 in 6.2 mi West 13.8 mph - N/A   Partly Cloudy
11:00 AM 58 °F 41 °F 41% 29.83 in 28 mi West 13.8 mph - -   Scattered Clouds
11:20 AM 59.0 °F 41.0 °F 51% 29.83 in 6.2 mi West 15.0 mph - N/A   Scattered Clouds
11:50 AM 59.0 °F 39.2 °F 48% 29.83 in 6.2 mi West 13.8 mph - N/A   Scattered Clouds
12:00 PM 59 °F 40 °F 37% 29.83 in 28 mi West 13.8 mph - -   Scattered Clouds
12:20 PM 60.8 °F 39.2 °F 45% 29.83 in 6.2 mi WNW 12.7 mph - N/A   Scattered Clouds
12:50 PM 60.8 °F 39.2 °F 45% 29.83 in 6.2 mi West 15.0 mph - N/A   Scattered Clouds
1:00 PM 61 °F 39 °F 32% 29.83 in 34 mi West 12.7 mph - -   Scattered Clouds
1:20 PM 62.6 °F 37.4 °F 39% 29.83 in 6.2 mi West 13.8 mph - N/A   Scattered Clouds
1:50 PM 60.8 °F 37.4 °F 42% 29.83 in 6.2 mi West 15.0 mph - N/A   Scattered Clouds
2:00 PM 63 °F 39 °F 29% 29.82 in 31 mi West 13.8 mph - -   Scattered Clouds
2:20 PM 62.6 °F 39.2 °F 42% 29.83 in 6.2 mi WNW 13.8 mph - N/A   Scattered Clouds
2:50 PM 60.8 °F 39.2 °F 45% 29.83 in 6.2 mi West 17.3 mph - N/A   Partly Cloudy
3:00 PM 62 °F 38 °F 29% 29.82 in 34 mi WSW 15.0 mph - -   Partly Cloudy
3:20 PM 60.8 °F 39.2 °F 45% 29.83 in 6.2 mi WSW 13.8 mph - N/A   Partly Cloudy
3:50 PM 59.0 °F 41.0 °F 51% 29.83 in 6.2 mi West 16.1 mph - N/A   Partly Cloudy
4:00 PM 59 °F 41 °F 39% 29.83 in 28 mi West 15.0 mph - -   Scattered Clouds
4:20 PM 60.8 °F 39.2 °F 45% 29.83 in 6.2 mi WSW 16.1 mph - N/A   Partly Cloudy
4:50 PM 59.0 °F 41.0 °F 51% 29.83 in 6.2 mi West 18.4 mph - N/A   Partly Cloudy
5:00 PM 60 °F 41 °F 39% 29.83 in 28 mi West 18.4 mph - -  
5:20 PM 60.8 °F 41.0 °F 48% 29.83 in 6.2 mi West 16.1 mph - N/A   Partly Cloudy
5:50 PM 59.0 °F 39.2 °F 48% 29.83 in 6.2 mi West 15.0 mph - N/A   Partly Cloudy
6:00 PM 59 °F 40 °F 37% 29.84 in 34 mi West 13.8 mph - -   Scattered Clouds
6:20 PM 53.6 °F 44.6 °F 72% 29.86 in 5.6 mi WNW 15.0 mph - N/A Rain Rain Showers
6:50 PM 53.6 °F 44.6 °F 72% 29.86 in 6.2 mi NNW 5.8 mph - N/A   Scattered Clouds
7:00 PM 53 °F 45 °F 65% 29.87 in 28 mi NNW 6.9 mph - - Rain Rain
7:20 PM 55.4 °F 44.6 °F 67% 29.86 in 6.2 mi NW 4.6 mph - N/A   Scattered Clouds
7:50 PM 53.6 °F 44.6 °F 72% 29.86 in 6.2 mi WNW 6.9 mph - N/A   Partly Cloudy
8:00 PM 53 °F 44 °F 62% 29.88 in 28 mi NW 8.1 mph - -   Partly Cloudy
8:20 PM 51.8 °F 44.6 °F 76% 29.89 in 6.2 mi WNW 10.4 mph - N/A Rain Light Rain Showers
8:50 PM 50.0 °F 44.6 °F 82% 29.89 in 5.6 mi NNW 5.8 mph - N/A Rain Rain Showers
9:00 PM 49 °F 44 °F 76% 29.91 in 4 mi NNW 6.9 mph - - Rain Rain Showers
9:20 PM 51.8 °F 44.6 °F 76% 29.92 in 6.2 mi North 4.6 mph - N/A   Mostly Cloudy
9:50 PM 48.2 °F 44.6 °F 87% 29.92 in 5.0 mi NNE 5.8 mph - N/A Rain Rain Showers
10:00 PM 48 °F 44 °F 81% 29.93 in 7 mi North 8.1 mph - - Rain Rain
10:20 PM 50.0 °F 44.6 °F 82% 29.92 in 6.2 mi North 3.5 mph - N/A   Scattered Clouds
10:50 PM 50.0 °F 44.6 °F 82% 29.95 in 6.2 mi Variable 2.3 mph - N/A   Scattered Clouds
11:00 PM 49 °F 46 °F 83% 29.94 in 22 mi NW 2.3 mph - - Rain Light Rain Showers
11:20 PM 50.0 °F 44.6 °F 82% 29.95 in 6.2 mi WSW 2.3 mph - N/A   Scattered Clouds
11:50 PM 50.0 °F 46.4 °F 87% 29.95 in 6.2 mi WSW 6.9 mph - N/A   Partly Cloudy